Вернуться в каталог

FENGYUN 1C DEB

LostPO
NORAD 30973·DEBRIS·🇨🇳 China

Запущен May 10, 1999 с Taiyuan Satellite Launch Center

Loading…

Ближайшие Пролёты (ближайшие 24 часа)

TLE

УстаревшееSource: Space-Track

Эпоха: Mar 8, 2021, 05:33 UTC

1 30973U 99025BBP 21067.23161498  .00000631  00000-0  34613-3 0  9997
2 30973  99.7677 169.3375 0105488  84.5598 276.8205 14.13122784720280

Отслеживайте FENGYUN 1C DEB в реальном времени с AllMySat

Download on the App Store